Location: Edisto_Beach
(32.4790°N, 80.3350°W)
Time: 05:30:21
(UTC-04:00)

Amateur Radio Satellites - All Passes

Search period start: 29 April 2017 05:00
Search period end: 30 April 2017 05:00
Location: Edisto_Beach, 32.4790°N, 80.3350°W

Satellite Date Start Highest point End Downlink Frequencies (MHz)
Time Altitude Azimuth
KKS-1 29 Apr 05:05:58 05:10:22 63° 76° (ENE) 05:14:48 437.445
MOZHAYETS 4 29 Apr 05:14:57 05:17:46 16° 266° (W) 05:20:35
RS-15 29 Apr 05:30:06 05:37:05 18° 98° (E) 05:44:10 29.354- 29.394
STARS 29 Apr 05:30:24 05:34:37 48° 74° (ENE) 05:38:51 437.465
SO-50 29 Apr 05:42:16 05:46:34 39° 113° (ESE) 05:50:50 436.795
AO-7 29 Apr 05:51:05 05:58:59 50° 293° (WNW) 06:06:54 .
ITAMSAT 1 29 Apr 06:06:54 06:09:42 15° 295° (WNW) 06:12:29 435.822/435.867
CUBESAT XI-V 29 Apr 06:11:57 06:15:43 25° 264° (W) 06:19:32 437.345
YUBILEINY 29 Apr 06:22:12 06:29:20 28° 286° (WNW) 06:36:32 435.215
DOVE 4 29 Apr 06:22:16 06:25:29 20° 94° (E) 06:28:36 437.250
XW-2C 29 Apr 06:33:56 06:36:08 15° 95° (E) 06:38:19 145.795 - 145.815
LilacSat-2 29 Apr 06:35:47 06:38:18 17° 95° (E) 06:40:48 437.200
XW-2F 29 Apr 06:56:23 06:59:41 28° 97° (E) 07:02:59 145.980 - 146.000
NUDT-PHONESAT 29 Apr 06:59:40 07:02:44 24° 97° (E) 07:05:50 437.300
Tancredo 1 29 Apr 07:01:19 07:04:19 50° 132° (SE) 07:07:19 437.200
STARS 29 Apr 07:09:41 07:11:08 11° 267° (W) 07:12:36 437.465
M-CUBED/EXP-1 PRIME 29 Apr 07:14:23 07:18:15 27° 66° (ENE) 07:22:09 437.505
SO-50 29 Apr 07:23:49 07:27:07 19° 308° (NW) 07:30:25 436.795
CUTE-I 29 Apr 07:32:07 07:37:25 68° 101° (ESE) 07:42:41 437.470
RS-15 29 Apr 07:35:46 07:47:43 87° 116° (ESE) 08:00:08 29.354- 29.394
ISS 29 Apr 07:43:35 07:46:50 64° 317° (NW) 07:50:04 437.550
XW-2D 29 Apr 07:47:36 07:51:18 48° 284° (WNW) 07:54:59 145.860 - 145.880
STRAND 1 29 Apr 07:51:51 07:56:54 65° 75° (ENE) 08:01:57 437.568
HO-68 29 Apr 07:54:28 08:00:26 27° 97° (E) 08:06:20 435.675
XW-2B 29 Apr 07:54:43 07:58:18 40° 285° (WNW) 08:01:54 145.730 - 145.750
KAITUO 1B 29 Apr 07:57:31 08:01:10 47° 284° (WNW) 08:04:49 145.475/437.950
DOVE 4 29 Apr 07:59:26 08:03:09 26° 289° (WNW) 08:06:43 437.250
XW-2A 29 Apr 07:59:51 08:02:08 17° 96° (E) 08:04:26 145.665 - 145.685
XW-2C 29 Apr 08:07:02 08:10:19 27° 287° (WNW) 08:13:34 145.795 - 145.815
LilacSat-2 29 Apr 08:09:20 08:12:30 25° 288° (WNW) 08:15:41 437.200
CUBEBUG 2 29 Apr 08:14:54 08:16:50 13° 94° (E) 08:18:46 437.445
CUTE 1.7 + AOD 2 29 Apr 08:14:55 08:18:47 32° 97° (E) 08:22:37 437.475
SEEDS 29 Apr 08:29:38 08:33:23 30° 97° (E) 08:37:06 437.485
XW-2F 29 Apr 08:31:22 08:33:33 15° 290° (WNW) 08:35:43 145.980 - 146.000
NUDT-PHONESAT 29 Apr 08:34:05 08:36:25 16° 289° (WNW) 08:38:46 437.300
Tancredo 1 29 Apr 08:38:50 08:40:24 13° 328° (NNW) 08:41:58 437.200
M-CUBED/EXP-1 PRIME 29 Apr 08:48:41 08:52:30 26° 259° (W) 08:56:24 437.505
Oscar 11 29 Apr 09:02:56 09:04:12 11° 92° (E) 09:05:29 .
CUTE-I 29 Apr 09:14:41 09:16:48 12° 296° (WNW) 09:18:56 437.470
AAUSAT CUBESAT 2 29 Apr 09:28:37 09:32:49 74° 102° (ESE) 09:36:58 437.432
UWE-3 29 Apr 09:30:06 09:34:19 67° 101° (E) 09:38:37 435.000/436.395/437.385
XW-2A 29 Apr 09:32:28 09:34:45 17° 288° (WNW) 09:37:01 145.665 - 145.685
STRAND 1 29 Apr 09:35:12 09:36:25 11° 268° (W) 09:37:37 437.568
HO-68 29 Apr 09:41:26 09:48:13 47° 291° (WNW) 09:55:01 435.675
TIGRISAT 29 Apr 09:47:47 09:50:29 16° 69° (ENE) 09:53:09 435.000
CUBEBUG 2 29 Apr 09:49:38 09:53:32 38° 286° (WNW) 09:57:30 437.445
CUTE 1.7 + AOD 2 29 Apr 09:51:34 09:54:19 17° 291° (WNW) 09:57:04 437.475
RS-15 29 Apr 09:52:03 10:01:52 27° 319° (NW) 10:11:55 29.354- 29.394
O/OREOS (USA 219) 29 Apr 10:03:35 10:08:04 57° 106° (ESE) 10:12:35 437.305
FO-29 29 Apr 10:04:49 10:10:07 29° 71° (ENE) 10:14:57 435.910
SEEDS 29 Apr 10:05:56 10:08:47 18° 290° (WNW) 10:11:38 437.485
UNISAT 6 29 Apr 10:08:35 10:12:27 31° 73° (ENE) 10:16:16 437.425
PRISM 29 Apr 10:18:02 10:22:10 73° 75° (ENE) 10:26:20 437.425
ZACube-1 29 Apr 10:19:04 10:23:15 55° 284° (WNW) 10:27:30 437.345
AO-73 29 Apr 10:24:12 10:28:22 53° 284° (WNW) 10:32:36 145.935
PCSat 29 Apr 10:36:06 10:38:48 14° 50° (NE) 10:41:31 145.827
Oscar 11 29 Apr 10:36:21 10:40:31 47° 285° (WNW) 10:44:42 .
OBJECT BX 29 Apr 11:19:11 11:22:50 66° 283° (WNW) 11:26:28 145.990 - 145.960
AIST 2D 29 Apr 11:21:10 11:23:47 20° 72° (ENE) 11:26:24 435.315
DELFI C3 29 Apr 11:21:39 11:25:30 46° 285° (WNW) 11:29:18 145.870
TIGRISAT 29 Apr 11:22:54 11:26:52 34° 261° (W) 11:30:48 435.000
AO-85 29 Apr 11:23:10 11:26:21 20° 111° (ESE) 11:29:23 145.980
POLYITAN 1 29 Apr 11:23:22 11:25:25 13° 68° (ENE) 11:27:28 437.675
QB50P2 29 Apr 11:29:19 11:32:07 18° 69° (ENE) 11:34:56 145.880/145.840
O/OREOS (USA 219) 29 Apr 11:46:12 11:47:49 12° 301° (WNW) 11:49:26 437.305
UNISAT 6 29 Apr 11:46:17 11:49:10 17° 265° (W) 11:52:01 437.425
NANOSAT C BR1 29 Apr 11:47:34 11:50:57 24° 71° (ENE) 11:54:19 145.865
FO-29 29 Apr 11:49:22 11:55:03 33° 261° (W) 12:00:13 435.910
LO-87 29 Apr 12:13:12 12:16:44 64° 100° (E) 12:20:14 145.935 - 145.965
DUCHIFAT 1 29 Apr 12:14:59 12:19:00 46° 74° (ENE) 12:23:00 145.980
EO-79 29 Apr 12:16:25 12:20:35 62° 75° (ENE) 12:24:45 145.935-145.965
PCSat 29 Apr 12:17:19 12:22:45 74° 247° (WSW) 12:28:07 145.827
RS-15 29 Apr 12:18:40 12:21:00 11° 354° (N) 12:23:21 29.354- 29.394
ESTCUBE 1 29 Apr 12:26:51 12:31:13 45° 99° (E) 12:35:33 437.505/2401.250
VELOX 1 29 Apr 12:29:58 12:30:50 10° 93° (E) 12:31:43 145.980
AIST 2D 29 Apr 12:54:44 12:56:53 16° 265° (W) 12:59:03 435.315
POLYITAN 1 29 Apr 12:56:53 13:00:49 39° 261° (W) 13:04:46 437.675
AO-85 29 Apr 13:02:45 13:06:33 29° 303° (WNW) 13:10:09 145.980
QB50P2 29 Apr 13:03:57 13:07:39 29° 262° (W) 13:11:21 145.880/145.840
BUGSAT 1 29 Apr 13:04:33 13:08:36 54° 76° (ENE) 13:12:36 437.445
SPROUT 29 Apr 13:07:03 13:10:46 30° 97° (E) 13:14:29 437.525
DX 1 29 Apr 13:11:29 13:12:48 11° 93° (E) 13:14:07 434.975-435.025
BEESAT 3 29 Apr 13:22:19 13:26:12 80° 118° (ESE) 13:30:11 437.485
NANOSAT C BR1 29 Apr 13:23:21 13:26:33 21° 264° (W) 13:29:45 145.865
BEESAT 2 29 Apr 13:28:41 13:32:06 29° 112° (ESE) 13:35:34 435.950
DUCHIFAT 1 29 Apr 13:54:05 13:54:50 10° 267° (W) 13:55:35 145.980
50 SAT 29 Apr 14:00:23 14:03:52 88° 273° (W) 14:07:18 437.505
VELOX 1 29 Apr 14:03:14 14:07:31 51° 286° (WNW) 14:11:46 145.980
ESTCUBE 1 29 Apr 14:05:18 14:07:34 14° 293° (WNW) 14:09:49 437.505/2401.250
UKube-1 29 Apr 14:05:51 14:09:49 36° 99° (E) 14:13:46 .
Oscar 19 29 Apr 14:06:15 14:11:24 83° 76° (ENE) 14:16:36 437.125/150
ISS 29 Apr 14:15:46 14:17:59 17° 34° (NE) 14:20:11 437.550
SO-50 29 Apr 14:19:54 14:21:20 11° 48° (NE) 14:22:46 436.795
Gurwin Techsat 1B 29 Apr 14:32:21 14:37:40 85° 74° (ENE) 14:43:01 435.225
RS-15 29 Apr 14:33:05 14:41:15 19° 32° (NNE) 14:49:12 29.354- 29.394
YUBILEINY 29 Apr 14:41:14 14:47:11 20° 70° (ENE) 14:53:07 435.215
SPROUT 29 Apr 14:43:36 14:46:25 18° 291° (WNW) 14:49:14 437.525
DX 1 29 Apr 14:45:00 14:49:11 47° 286° (WNW) 14:53:20 434.975-435.025
AO-7 29 Apr 14:53:34 15:00:22 29° 61° (ENE) 15:07:09 .
Tancredo 1 29 Apr 15:05:57 15:09:02 78° 42° (NE) 15:12:07 437.200
BEESAT 2 29 Apr 15:07:04 15:09:52 18° 307° (NW) 15:12:41 435.950
ITUPSAT 1 29 Apr 15:16:27 15:19:19 16° 94° (E) 15:22:11 437.325
MOZHAYETS 4 29 Apr 15:37:41 15:39:34 12° 93° (E) 15:41:28
ITAMSAT 1 29 Apr 15:39:01 15:44:03 53° 73° (ENE) 15:49:05 435.822/435.867
UKube-1 29 Apr 15:42:59 15:45:30 15° 292° (WNW) 15:48:00 .
JUGNU 29 Apr 15:45:27 15:48:45 15° 166° (SSE) 15:52:05 437.505
ISS 29 Apr 15:51:31 15:54:35 38° 229° (SW) 15:57:38 437.550
SO-50 29 Apr 15:57:45 16:02:14 71° 243° (WSW) 16:06:43 436.795
BEESAT 29 Apr 16:09:45 16:14:30 67° 102° (ESE) 16:19:14 436.000
YUBILEINY 29 Apr 16:35:57 16:44:42 73° 267° (W) 16:53:26 435.215
RS-15 29 Apr 16:44:30 16:56:40 67° 59° (ENE) 17:08:08 29.354- 29.394
AO-7 29 Apr 16:44:35 16:52:37 54° 257° (WSW) 17:00:42 .
ITUPSAT 1 29 Apr 16:52:46 16:57:15 41° 287° (WNW) 17:01:44 437.325
KKS-1 29 Apr 17:02:36 17:05:29 17° 95° (E) 17:08:21 437.445
MOZHAYETS 4 29 Apr 17:12:28 17:16:55 49° 286° (WNW) 17:21:22
ITAMSAT 1 29 Apr 17:21:01 17:23:44 14° 266° (W) 17:26:27 435.822/435.867
DOVE 4 29 Apr 17:22:57 17:26:08 16° 68° (ENE) 17:29:18 437.250
STARS 29 Apr 17:26:15 17:27:59 12° 94° (E) 17:29:42 437.465
JUGNU 29 Apr 17:32:37 17:37:08 23° 176° (S) 17:41:38 437.505
BEESAT 29 Apr 17:50:46 17:51:39 10° 296° (WNW) 17:52:31 436.000
CUBESAT XI-V 29 Apr 18:11:58 18:16:39 70° 284° (WNW) 18:21:19 437.345
HO-68 29 Apr 18:21:46 18:24:32 13° 58° (ENE) 18:27:17 435.675
XW-2D 29 Apr 18:24:12 18:27:38 36° 74° (ENE) 18:31:05 145.860 - 145.880
NO-84 29 Apr 18:27:58 18:31:57 68° 129° (SE) 18:35:35 435.350 FM
XW-2B 29 Apr 18:31:07 18:34:39 43° 75° (ENE) 18:38:12 145.730 - 145.750
KAITUO 1B 29 Apr 18:32:55 18:36:17 34° 74° (ENE) 18:39:40 145.475/437.950
KKS-1 29 Apr 18:38:06 18:42:04 33° 288° (WNW) 18:46:00 437.445
XW-2C 29 Apr 18:43:00 18:46:42 66° 76° (ENE) 18:50:25 145.795 - 145.815
LilacSat-2 29 Apr 18:45:45 18:49:29 78° 78° (ENE) 18:53:15 437.200
CUTE-I 29 Apr 18:49:13 18:54:32 71° 75° (ENE) 18:59:51 437.470
DOVE 4 29 Apr 18:58:11 19:03:20 52° 260° (W) 19:08:26 437.250
RS-15 29 Apr 18:58:27 19:08:04 30° 257° (WSW) 19:17:20 29.354- 29.394
STARS 29 Apr 19:00:20 19:04:29 44° 286° (WNW) 19:08:36 437.465
SRMSAT 29 Apr 19:01:43 19:05:50 19° 169° (S) 19:09:57 437.500
CUTE 1.7 + AOD 2 29 Apr 19:04:42 19:06:40 13° 68° (ENE) 19:08:38 437.475
XW-2F 29 Apr 19:06:03 19:09:41 58° 260° (W) 19:13:22 145.980 - 146.000
NUDT-PHONESAT 29 Apr 19:07:21 19:10:59 71° 259° (W) 19:14:39 437.300
SEEDS 29 Apr 19:18:45 19:20:18 12° 67° (ENE) 19:21:50 437.485
JUGNU 29 Apr 19:21:06 19:25:33 22° 186° (S) 19:30:01 437.505
XW-2A 29 Apr 19:58:06 20:01:24 63° 77° (ENE) 20:04:43 145.665 - 145.685
XW-2D 29 Apr 20:01:18 20:01:56 10° 267° (W) 20:02:33 145.860 - 145.880
HO-68 29 Apr 20:04:00 20:11:08 83° 74° (ENE) 20:18:19 435.675
STRAND 1 29 Apr 20:07:18 20:11:51 32° 98° (E) 20:16:23 437.568
NO-84 29 Apr 20:08:07 20:09:43 12° 322° (NW) 20:11:15 435.350 FM
KAITUO 1B 29 Apr 20:09:47 20:10:24 10° 267° (W) 20:11:00 145.475/437.950
AAUSAT CUBESAT 2 29 Apr 20:14:26 20:17:50 25° 72° (ENE) 20:21:17 437.432
O/OREOS (USA 219) 29 Apr 20:18:15 20:22:42 50° 68° (ENE) 20:27:05 437.305
UWE-3 29 Apr 20:22:53 20:26:33 29° 73° (ENE) 20:30:10 435.000/436.395/437.385
M-CUBED/EXP-1 PRIME 29 Apr 20:32:00 20:35:34 32° 102° (ESE) 20:38:51 437.505
CUTE-I 29 Apr 20:33:48 20:34:58 11° 268° (W) 20:36:07 437.470
CUTE 1.7 + AOD 2 29 Apr 20:38:08 20:42:05 40° 262° (W) 20:46:05 437.475
CUBEBUG 2 29 Apr 20:42:30 20:46:53 88° 266° (W) 20:51:09 437.445
SRMSAT 29 Apr 20:49:42 20:54:25 24° 179° (S) 20:59:09 437.500
SEEDS 29 Apr 20:51:32 20:55:31 44° 261° (W) 20:59:33 437.485
ZACube-1 29 Apr 21:10:01 21:14:09 60° 76° (ENE) 21:18:15 437.345
JUGNU 29 Apr 21:10:58 21:13:55 14° 195° (SSW) 21:16:53 437.505
AO-73 29 Apr 21:14:50 21:18:57 61° 77° (ENE) 21:23:02 145.935
Oscar 11 29 Apr 21:25:57 21:30:12 70° 77° (ENE) 21:34:30 .
AO-85 29 Apr 21:37:12 21:41:09 56° 60° (ENE) 21:45:20 145.980
BEESAT 3 29 Apr 21:45:10 21:46:45 12° 50° (NE) 21:48:18 437.485
STRAND 1 29 Apr 21:46:49 21:50:48 24° 291° (WNW) 21:54:48 437.568
AAUSAT CUBESAT 2 29 Apr 21:50:16 21:53:14 19° 265° (W) 21:56:13 437.432
OBJECT BX 29 Apr 21:52:53 21:55:47 23° 73° (ENE) 21:58:43 145.990 - 145.960
HO-68 29 Apr 21:56:12 21:59:28 13° 268° (W) 22:02:44 435.675
UWE-3 29 Apr 22:00:09 22:02:59 17° 265° (W) 22:05:47 435.000/436.395/437.385
O/OREOS (USA 219) 29 Apr 22:00:16 22:01:33 11° 262° (W) 22:02:50 437.305
DELFI C3 29 Apr 22:02:02 22:05:50 46° 75° (ENE) 22:09:41 145.870
PRISM 29 Apr 22:05:31 22:07:41 14° 94° (E) 22:09:49 437.425
M-CUBED/EXP-1 PRIME 29 Apr 22:07:32 22:09:37 14° 298° (WNW) 22:11:38 437.505
SRMSAT 29 Apr 22:38:45 22:43:01 20° 190° (S) 22:47:16 437.500
LO-87 29 Apr 22:46:24 22:48:08 13° 70° (ENE) 22:49:52 145.935 - 145.965
FO-29 29 Apr 23:02:05 23:07:00 35° 99° (E) 23:12:19 435.910
TIGRISAT 29 Apr 23:18:07 23:22:25 67° 102° (ESE) 23:26:46 435.000
BEESAT 3 29 Apr 23:20:43 23:24:36 50° 245° (WSW) 23:28:26 437.485
ESTCUBE 1 29 Apr 23:22:13 23:25:49 24° 70° (ENE) 23:29:27 437.505/2401.250
OBJECT BX 29 Apr 23:27:14 23:29:24 15° 265° (W) 23:31:36 145.990 - 145.960
BEESAT 2 29 Apr 23:27:27 23:31:29 61° 61° (ENE) 23:35:26 435.950
PRISM 29 Apr 23:39:16 23:43:01 34° 287° (WNW) 23:46:44 437.425
UNISAT 6 29 Apr 23:40:29 23:44:44 59° 284° (WNW) 23:49:03 437.425
SPROUT 29 Apr 23:57:24 23:59:28 13° 68° (ENE) 00:01:32 437.525
DUCHIFAT 1 30 Apr 00:06:30 00:06:57 10° 93° (E) 00:07:23 145.980
EO-79 30 Apr 00:07:06 00:09:20 14° 94° (E) 00:11:32 145.935-145.965
LO-87 30 Apr 00:18:07 00:21:16 28° 262° (W) 00:24:27 145.935 - 145.965
AIST 2D 30 Apr 00:22:44 00:26:10 47° 100° (E) 00:29:35 435.315
50 SAT 30 Apr 00:29:43 00:31:49 15° 70° (ENE) 00:33:56 437.505
SRMSAT 30 Apr 00:30:16 00:31:31 11° 198° (SSW) 00:32:47 437.500
POLYITAN 1 30 Apr 00:45:53 00:49:54 44° 100° (E) 00:53:56 437.675
FO-29 30 Apr 00:47:47 00:51:55 23° 291° (WNW) 00:56:18 435.910
QB50P2 30 Apr 00:52:36 00:56:46 60° 101° (E) 01:00:55 145.880/145.840
BUGSAT 1 30 Apr 00:53:33 00:54:14 10° 93° (E) 00:54:55 437.445
VELOX 1 30 Apr 00:55:15 00:59:42 76° 76° (ENE) 01:04:09 145.980
UKube-1 30 Apr 00:56:38 00:59:31 18° 69° (ENE) 01:02:25 .
ESTCUBE 1 30 Apr 00:58:50 01:02:29 24° 264° (W) 01:06:10 437.505/2401.250
NANOSAT C BR1 30 Apr 01:10:50 01:15:02 85° 102° (ESE) 01:19:13 145.865
PCSat 30 Apr 01:11:52 01:16:23 28° 107° (ESE) 01:20:56 145.827
SPROUT 30 Apr 01:30:57 01:34:58 40° 261° (W) 01:39:00 437.525
DX 1 30 Apr 01:35:18 01:39:40 80° 77° (ENE) 01:44:04 434.975-435.025
DUCHIFAT 1 30 Apr 01:38:47 01:42:47 47° 286° (WNW) 01:46:48 145.980
EO-79 30 Apr 01:41:20 01:45:09 35° 287° (WNW) 01:48:58 145.935-145.965
50 SAT 30 Apr 02:01:49 02:04:32 21° 263° (W) 02:07:16 437.505
ITUPSAT 1 30 Apr 02:20:23 02:21:54 11° 65° (ENE) 02:23:26 437.325
Oscar 19 30 Apr 02:22:40 02:27:36 42° 99° (E) 02:32:29 437.125/150
POLYITAN 1 30 Apr 02:23:39 02:25:15 12° 293° (WNW) 02:26:52 437.675
BUGSAT 1 30 Apr 02:25:57 02:29:44 42° 286° (WNW) 02:33:32 437.445
UKube-1 30 Apr 02:31:26 02:35:16 31° 262° (W) 02:39:08 .
NO-84 30 Apr 02:43:36 02:46:22 46° 46° (NE) 02:49:06 435.350 FM
Gurwin Techsat 1B 30 Apr 02:53:22 02:58:31 49° 100° (E) 03:03:39 435.225
PCSat 30 Apr 02:54:49 02:59:36 32° 302° (WNW) 03:04:27 145.827
BEESAT 30 Apr 03:11:31 03:16:01 44° 73° (ENE) 03:20:32 436.000
YUBILEINY 30 Apr 03:36:29 03:43:15 26° 84° (E) 03:50:00 435.215
ITUPSAT 1 30 Apr 03:54:29 03:59:09 61° 259° (WSW) 04:03:52 437.325
ITAMSAT 1 30 Apr 03:56:57 04:01:18 27° 97° (E) 04:05:38 435.822/435.867
Oscar 19 30 Apr 04:02:59 04:06:32 19° 293° (WNW) 04:10:05 437.125/150
MOZHAYETS 4 30 Apr 04:09:14 04:13:47 90° 360° (N) 04:18:21
Gurwin Techsat 1B 30 Apr 04:34:41 04:38:01 17° 294° (WNW) 04:41:20 435.225
BEESAT 30 Apr 04:51:24 04:53:56 14° 266° (W) 04:56:29 436.000
